Location: *
(29.9762°N, 31.1309°E)
Time: 12:44:49
(UTC+00:00)

Daily predictions for brighter satellites

Satellite Brightness Start Highest point End
(mag) Time Altitude Azimuth Time Altitude Azimuth Time Altitude Azimuth
ATLAS 2A CENTAUR R/B 4.5 16:59:06 10° W 17:08:17 70° S 17:30:33 10° ESE
USA 186 2.1 17:22:46 10° SSE 17:25:29 41° ENE 17:28:22 10° N
Cosmos 1025 Rocket 4.0 17:22:27 10° SSE 17:26:01 26° E 17:29:36 10° NNE
Cosmos 724 4.2 17:20:44 10° SSW 17:26:32 72° ESE 17:32:17 10° NNE
GPS 2-17 Rocket1 4.5 17:23:18 10° SW 17:26:38 22° S 17:30:01 10° SE
CZ-4C R/B 3.4 17:24:12 10° N 17:27:34 66° WNW 17:30:59 10° SSW
Cosmos 1238 Rocket 4.1 17:21:43 10° N 17:27:56 88° E 17:34:24 10° S
Cosmos 1833 Rocket 4.2 17:26:29 10° SE 17:29:33 15° E 17:32:37 10° ENE
Okean 2 Rocket 4.3 17:26:10 10° NNW 17:30:23 46° W 17:34:34 10° SSW
Cosmos 1745 Rocket 4.3 17:25:53 10° N 17:31:49 47° E 17:37:45 10° SSE
Cosmos 1371 Rocket 4.1 17:27:16 10° SSW 17:32:28 89° W 17:37:45 10° NNE
CZ-4 R/B 2.9 17:32:17 10° SSW 17:36:11 39° W 17:40:03 10° NNW
Atlas Centaur 2 2.6 17:33:15 10° W 17:39:21 47° SSW 17:43:57 11° SE
Meteor 2-5 Rocket 3.9 17:35:24 10° SSE 17:40:43 51° E 17:46:04 10° NNE
COBE Rocket 3.7 17:36:20 10° SSE 17:40:58 78° E 17:45:36 10° N
Delta 2 Rocket 3.7 17:38:11 10° W 17:41:32 47° NNW 17:44:46 10° ENE
Yuri Rocket 2.9 17:40:04 10° W 17:44:19 70° S 17:48:21 11° E
JB-3 4.1 17:44:35 10° NNE 17:48:26 75° E 17:52:13 10° S
Resurs 01 Rocket 3.1 17:46:10 12° ESE 17:49:06 22° ENE 17:52:31 10° NNE
IRS-1C Rocket 4.1 17:44:38 10° SSE 17:49:53 85° ENE 17:55:10 10° NNW
Cosmos 1300 2.6 17:46:58 10° N 17:50:46 88° E 17:54:32 10° S
Cosmos 1455 Rocket 3.7 17:50:35 10° NNE 17:54:36 37° E 17:57:45 15° SE
Cosmos 1140 Rocket 3.4 17:50:01 10° NNW 17:55:12 85° ENE 18:00:20 10° SSE
Cosmos 1023 Rocket 4.4 17:50:24 10° NNW 17:55:34 89° ESE 18:00:39 10° SSE
Cosmos 407 Rocket 3.4 17:51:27 10° NNW 17:56:36 81° ENE 18:01:38 10° SSE
Meteor 1-24 Rocket 3.6 17:52:57 10° S 17:58:11 65° E 18:03:32 10° NNE
Okean 1 Rocket 3.9 17:54:21 10° NNW 17:58:39 52° W 18:02:55 10° S
Cosmos 1190 Rocket 4.3 17:53:33 10° N 17:58:43 52° ENE 18:02:53 15° SE
KM-V1 3.1 17:57:18 10° WSW 18:00:11 57° SSE 18:01:15 25° E
Lacrosse 5 3.4 17:56:02 10° N 18:00:11 25° NE 18:03:40 13° E
Okean O Rocket 4.4 17:58:07 10° SW 18:00:40 15° W 18:03:15 10° WNW
CZ-4B R/B 2.0 17:59:49 10° NE 18:02:21 27° E 18:03:08 23° SE
ATLAS 2A CENTAUR R/B 1.6 18:00:51 10° WSW 18:02:46 30° S 18:03:02 29° SSE
Cosmos 2082 Rocket 4.1 18:03:52 10° E 18:03:52 10° E 18:04:18 10° E
Okean-O 3.2 17:59:34 10° S 18:03:54 58° W 18:08:16 10° NNW
IGS 5A 3.5 18:01:28 10° S 18:05:35 83° WSW 18:09:44 10° NNW
Cosmos 1953 4.2 18:05:41 10° NNW 18:09:08 29° W 18:12:35 10° SSW
H-2A R/B 2.4 18:05:30 10° S 18:09:16 71° WSW 18:13:05 10° NNW
ASTRO E2 3.3 18:06:14 10° SW 18:09:46 33° SSE 18:11:18 24° ESE
USA 267 4.4 18:06:06 10° E 18:10:27 19° ESE 18:11:07 18° SE
GOES 2 Rocket 3.5 18:09:44 10° WSW 18:14:03 49° SSE 18:17:53 17° E
Meteor 2-10 Rocket 3.8 18:10:14 10° NNW 18:15:11 65° W 18:20:12 10° S
DELTA 2 R/B (1) 4.4 18:10:21 10° WNW 18:15:32 40° SW 18:19:03 19° SSE
Cosmos 1536 Rocket 4.4 18:14:10 24° SE 18:15:44 31° E 18:19:33 10° NNE
Spot 2 4.4 18:11:55 11° S 18:16:21 75° WSW 18:21:14 10° NNW
Cosmos 1271 Rocket 3.8 18:14:22 10° NNE 18:17:49 28° ENE 18:18:44 26° ESE
Cosmos 2315 Rocket 4.1 18:12:01 10° S 18:18:22 83° W 18:24:41 10° N
MetOp-A 3.9 18:15:20 12° S 18:19:16 67° W 18:23:52 10° NNW
Cosmos 1709 Rocket 4.0 18:14:05 10° N 18:20:21 75° E 18:25:42 15° SSE
Cosmos 1975 Rocket 4.2 18:17:28 10° SSW 18:21:44 45° W 18:25:59 10° N
H-2A R/B 2.5 18:18:12 10° N 18:22:39 69° WNW 18:27:07 10° SSW
Cosmos 676 Rocket 4.2 18:22:15 10° N 18:27:27 57° ENE 18:29:59 29° SE
Cosmos 1455 2.8 18:23:57 10° NNE 18:27:32 37° E 18:28:11 34° ESE
Ariane Rocket 3.5 18:26:13 27° SE 18:28:31 44° ENE 18:33:19 10° N
Tiangong 2.2 18:34:01 10° NW 18:36:58 35° NNE 18:37:34 31° NE
GEOS 3 Rocket 4.0 18:36:11 30° ESE 18:38:21 47° NE 18:43:14 10° NNW
Cosmos 1954 Rocket 3.9 18:36:57 10° NNW 18:42:12 90° E 18:44:37 33° SSE
MetOp-B 4.3 18:42:35 35° SE 18:44:34 55° ENE 18:49:48 10° N
Cosmos 1656 4.3 18:40:07 10° N 18:45:16 40° ENE 18:46:48 33° ESE
ATLAS 2AS CENTAUR R/B 2.6 18:38:39 10° NNW 18:45:32 69° ENE 18:48:29 34° SE
Cosmos 1544 Rocket 3.4 18:42:49 10° N 18:47:09 80° E 18:48:23 47° SSE
Lacrosse 5 rocket 1.7 18:45:35 10° NW 18:49:27 54° SW 18:50:20 44° S
USA 32 4.3 18:45:11 13° SSW 18:49:44 65° W 18:54:55 10° N
Skynet4D Del rocket 4.5 18:45:01 10° W 18:50:15 37° SSW 18:51:43 32° SSE
Cosmos 1331 Rocket 3.9 18:49:37 23° S 18:53:01 78° ESE 18:58:19 10° NNE
SPOT 1/Viking Rocket 3.6 18:53:19 33° S 18:55:40 75° WSW 19:00:50 10° NNW
Cosmos 1980 Rocket 4.4 18:55:46 10° NE 18:56:11 10° NE 18:56:37 10° ENE
COSMOS 2406 3.2 18:54:08 35° SSE 18:56:20 58° ESE 19:01:59 10° NNE
Cosmos 1697 Rocket 4.1 18:52:35 10° N 18:56:55 22° ENE 18:57:48 22° ENE
Spot 2 Rocket 4.3 18:58:36 33° E 18:59:04 34° ENE 19:03:38 10° N
Aurora 2 Rocket 4.2 18:57:23 10° WSW 19:07:19 60° S 19:10:32 38° ESE
SPOT 5 3.4 19:10:33 39° ENE 19:10:33 39° ENE 19:14:09 10° N
Cosmos 1833 Rocket 3.4 19:07:29 10° SW 19:12:54 52° WNW 19:18:23 10° N
CZ-2C R/B 4.0 19:10:03 10° NNE 19:13:44 50° ENE 19:13:44 50° ENE
Cosmos 1703 3.8 19:16:02 50° W 19:16:18 51° W 19:20:03 10° N
Terra 2.9 19:17:35 32° ENE 19:17:35 32° ENE 19:21:17 10° N
Milstar 3 4.3 19:11:57 10° WSW 19:22:05 66° SSE 19:42:34 10° E
ERS-1 Rocket 3.3 19:22:34 51° ENE 19:22:34 51° ENE 19:27:16 10° N
Cosmos 1302 Rocket 3.9 19:23:43 67° E 19:23:43 67° E 19:28:34 10° NNE
Helios 1A Rocket 3.8 19:24:58 40° NNE 19:24:58 40° NNE 19:27:54 10° N
Resurs 01 Rocket 3.5 19:23:43 19° SW 19:25:24 24° W 19:29:01 10° NW
RESURS DK-1 3.2 19:22:21 10° NNW 19:25:28 45° NNE 19:25:28 45° NNE
Atlas Centaur 2 4.1 19:25:21 10° WSW 19:26:28 12° SW 19:26:28 12° SW
Cosmos 2184 Rocket 4.0 19:29:39 10° N 19:35:50 77° W 19:37:07 58° SSW
Cosmos 2228 3.7 19:35:18 10° N 19:38:27 50° NNW 19:38:27 50° NNW
Lacrosse 5 2.7 19:38:28 10° NW 19:42:52 40° WSW 19:42:52 40° WSW
Cosmos 2082 Rocket 2.3 19:45:37 61° WSW 19:46:29 72° WNW 19:52:12 10° NNE
Mugunghwa Rocket 4.5 19:42:12 10° WSW 19:50:15 69° S 19:51:30 61° SE
USA 267 3.2 19:47:11 10° NE 19:53:44 83° NW 19:58:11 22° SW
Cosmos 2360 4.3 19:48:34 10° NNW 19:53:50 70° NNE 19:53:50 70° NNE
ARIANE 5 R/B 3.9 19:58:11 37° N 19:58:11 37° N 20:00:56 10° N
Cosmos 2341 Rocket 4.4 19:56:47 10° N 20:02:07 50° ENE 20:02:07 50° ENE
Cosmos 2181 Rocket 4.2 20:22:33 62° NNE 20:22:33 62° NNE 20:27:39 10° N
SL-16 R/B 4.1 20:36:26 10° NNE 20:39:33 20° NE 20:39:33 20° NE
Cosmos 1980 Rocket 3.0 20:35:09 10° NNW 20:39:07 47° NNW 20:39:07 47° NNW
Cosmos 1697 Rocket 4.0 20:35:47 10° NW 20:39:32 32° WNW 20:39:32 32° WNW
Cosmos 2344 4.5 20:35:05 10° NNW 20:45:19 88° ENE 20:48:13 62° SSE
ATLAS 5 CENTAUR R/B 4.3 20:48:01 13° NNW 20:48:01 13° NNW 20:48:44 10° N
Terra 4.3 20:56:28 16° WNW 20:56:28 16° WNW 20:58:03 10° NW
ADEOS Rocket 4.2 20:58:46 42° ENE 20:58:46 42° ENE 21:05:20 10° N
Cosmos 2322 Rocket 3.9 21:11:21 10° N 21:14:36 25° NE 21:14:36 25° NE
SJ 16-02 4.1 21:34:29 10° N 21:35:23 16° N 21:35:23 16° N
Cosmos 2360 Rocket 3.8 21:47:00 10° N 21:50:16 29° NNE 21:50:16 29° NNE
USA 234 4.0 22:04:42 46° NE 22:04:43 46° NE 22:10:54 10° NNW
SL-16 R/B 4.2 22:19:30 10° NW 22:21:23 20° NW 22:21:23 20° NW
Cosmos 2219 Rocket 3.8 22:24:20 10° N 22:28:08 29° NE 22:28:08 29° NE
NOSS 3-2 (A) 4.5 22:54:56 36° N 22:54:56 36° N 22:58:42 10° NNE
Cosmos 2322 Rocket 4.5 22:55:21 10° NW 22:56:24 15° NW 22:56:24 15° NW
CENTAUR R/B 3.3 23:09:34 41° NNW 23:09:34 41° NNW 23:14:29 10° NNE
Cosmos 2333 Rocket 3.7 23:10:03 10° NNW 23:12:52 30° NW 23:12:52 30° NW
Cosmos 2227 Rocket 3.1 23:29:43 43° ENE 23:29:43 43° ENE 23:33:56 10° NNE
MOS 1 Rocket 4.5 23:36:00 44° NE 23:36:00 44° NE 23:40:17 10° N
Resurs 1-4 Rocket 2.9 23:34:12 10° N 23:38:01 48° N 23:38:01 48° N
NOSS 3-2 (C) 4.1 23:41:34 40° NNW 23:41:34 40° NNW 23:46:14 10° NNE
CZ-2D R/B 2.9 23:42:55 10° N 23:46:40 45° NNW 23:46:40 45° NNW
OAO 3 Rocket 4.4 23:49:30 41° NE 23:49:30 41° NE 23:53:17 10° ENE
SL-16 R/B 2.8 23:49:37 59° ESE 23:50:24 64° ENE 23:56:34 10° N
COSMOS 2455 4.3 23:45:24 10° N 23:50:48 34° ENE 23:55:52 11° ESE
